Simultaneous Nadir Overpasses (SNOs) Predictions

Prediction of SNOs between NOAA-15 and METOP-C Satellite Orbit:

Table of predicted SNOs for the next 14.0 days since TLE Epoch: 7/24/2023
Index Date (NOAA-15) Time (NOAA-15) Lat,Lon (NOAA-15) SZA (NOAA-15 ) Date (METOP-C) Time (METOP-C) Lat,Lon (METOP-C) SZA (METOP-C ) Distance(km) Time Diff (sec)
1 08/07/2023 05:48:52 81.08, 131.21 66.44 08/07/2023 05:47:39 81.09, 131.03 66.40 3.18 73
2 08/07/2023 06:39:19 -81.08, -61.54 113.56 08/07/2023 06:38:20 -81.09, -61.54 113.58 0.52 59
3 08/07/2023 07:29:53 81.08, 105.90 66.46 08/07/2023 07:29:00 81.09, 105.88 66.44 1.35 53
4 08/07/2023 08:20:20 -81.09, -86.86 113.55 08/07/2023 08:19:41 -81.10, -86.70 113.54 2.86 39
5 08/07/2023 09:10:55 81.10, 80.21 66.45 08/07/2023 09:10:22 81.09, 80.35 66.44 2.93 33
6 08/07/2023 10:01:21 -81.09,-112.17 113.53 08/07/2023 10:01:03 -81.09,-112.23 113.55 1.04 18
7 08/07/2023 10:51:55 81.09, 55.26 66.49 08/07/2023 10:51:43 81.09, 55.19 66.48 1.38 12
8 08/07/2023 11:42:22 -81.09,-137.49 113.52 08/07/2023 11:42:24 -81.10,-137.39 113.50 1.71 2
9 08/07/2023 12:32:56 81.09, 29.95 66.50 08/07/2023 12:33:04 81.10, 30.04 66.52 1.91 8



Historial Predications of SNOs between NOAA-15 and METOP-C
